P 76-5 DEB, 59984

Orbit data source: Space-Track

P 76-5 DEB, 59984 is space debris in SSO originally from an American launch on Sat, 22 May 1976 UTC launched from the Air Force Western Test Range (AFWTR). Debris objects in space refer to the collection of defunct objects orbiting the Earth. Examples of debris include non-operational satellites, rocket bodies, and fragments generated from explosions, collisions, or faulty payload assembly.

Loading next visibility...
Identifier
59984, 1976-047E
Orbit
SSO
Country
Flag of USUS
Related business
Manufacturer
APL
Mission
Spacecraft
Bus & Motor
Unknown
Mass
Unknown
Launch date (UTC)
1976-05-22 (50 years ago)
Launch vehicle
Unknown
Launch site
Air Force Western Test Range (AFWTR)
Object type
Payload
Rocket body
Debris
Shape & HBR
Unknown shape, 0.1 m
Radar Cross Section
Medium (>0.1 m² and <1 m²)

Expand to show TLE details & history
Last TLE update: 2 days ago

TLE from 2 days ago
0 P 76-5 DEB
1 59984U 76047E   26171.41379211  .00000824  00000-0  93358-3 0  9999
2 59984  99.8639  23.6820 0040820 327.1916  32.6697 13.73339381272628
Epoch: 2026-06-20T09:55Z
TLE epoch observation values (Epoch: 2026-06-20T09:55:51.638Z)
Latitude
-0.00004°
Longitude
-33.91192°
Altitude
965.139 km
Speed
7.382 km/s
True Right ascension
01h 34m 43s
True Declination
0° 00' 00"
Sunlit
Object was in daylight at epoch
Visualization orbit readout
Latitude
Unknown
Longitude
Unknown
Altitude
Unknown
Speed
Unknown
Apparent Right ascension
Unknown
Apparent Declination
Unknown
Sunlit
N/A
Visualization observer readout
Local Sidereal Time
21:29:28
Azimuth
Unknown
Elevation
Unknown
Doppler factor
Unknown
Orbital elements
Apogee altitude
1,014.941 km
Perigee altitude
954.829 km
Semi-major axis
7,363.022 km
Eccentricity
0.00408
Inclination
99.8639°
RAAN
23.682°
Arg. of periapsis
327.1916°
True anomaly
32.92328°
Mean anomaly
32.6697°
Eccentric anomaly
32.79638°
Mean motion
3.43526 °/min
Orbital period
104.8 mins
BSTAR
0.00093358
Loading maneuver chart data...
Computing Atmospheric mass density...
Loading historical data...
Loading historical data...
Loading historical data...
Loading historical data...
Loading historical data...
Loading historical data...
Loading historical data...
Other satellites on launch #47 in the year 1976 (1976-05-22 UTC)

Documentation

Showing up to 5 results
|